When you browse on this site, cookies collect data to enhance your experience and personalize the content and advertising you see.
Visit our Privacy Policy to learn more. By continuing to use the site, you agree to this use of cookies and data.
  • In Hungary
  • List of Countries
  • For 7 days
  • Water Temperature
  • Satellite Maps
  • Weather Map
  • News
  • Weather Widgets
  • user-avatar
    Login

    Hourly Weather Opatkowice

    Today, 21 May, Tuesday

    Time Temperature Precipitation Wind Pressure Humidity
    00:00 +13°C° 0 mm 1 mps 732 mmHg 89%
    01:00 +12°C° 0 mm 1 mps 732 mmHg 89%
    02:00 +12°C° 0 mm 1 mps 731 mmHg 89%
    03:00 +12°C° 0 mm 1 mps 731 mmHg 89%
    04:00 +12°C° 0 mm 1 mps 731 mmHg 89%
    05:00 +13°C° 0 mm 2 mps 731 mmHg 86%
    06:00 +15°C° 0 mm 2 mps 731 mmHg 83%
    07:00 +16°C° 0 mm 2 mps 731 mmHg 79%
    08:00 +17°C° 0.2 mm 3 mps 731 mmHg 78%
    09:00 +18°C° 0.2 mm 3 mps 731 mmHg 76%
    10:00 +19°C° 0.2 mm 3 mps 731 mmHg 74%
    11:00 +18°C° 0.9 mm 3 mps 731 mmHg 76%
    12:00 +18°C° 0.9 mm 4 mps 730 mmHg 77%
    13:00 +18°C° 0.9 mm 4 mps 730 mmHg 79%
    14:00 +18°C° 1.3 mm 4 mps 730 mmHg 81%
    15:00 +17°C° 1.3 mm 3 mps 730 mmHg 84%
    16:00 +17°C° 1.3 mm 3 mps 729 mmHg 87%
    17:00 +15°C° 0.9 mm 4 mps 729 mmHg 87%
    18:00 +15°C° 0.9 mm 5 mps 729 mmHg 86%
    19:00 +15°C° 0.9 mm 5 mps 729 mmHg 86%
    20:00 +15°C° 1.2 mm 6 mps 729 mmHg 88%
    21:00 +14°C° 1.2 mm 6 mps 729 mmHg 89%
    22:00 +14°C° 1.2 mm 7 mps 730 mmHg 90%
    23:00 +14°C° 1.2 mm 7 mps 730 mmHg 91%

    Tomorrow, 22 May, Wednesday

    Time Temperature Precipitation Wind Pressure Humidity
    00:00 +14°C° 1.2 mm 7 mps 730 mmHg 92%
    01:00 +14°C° 1.2 mm 6 mps 730 mmHg 93%
    02:00 +14°C° 1.1 mm 6 mps 730 mmHg 93%
    03:00 +13°C° 1.1 mm 6 mps 730 mmHg 93%
    04:00 +13°C° 1.1 mm 6 mps 730 mmHg 93%
    05:00 +13°C° 0.6 mm 6 mps 730 mmHg 93%
    06:00 +14°C° 0.6 mm 5 mps 730 mmHg 92%
    07:00 +14°C° 0.6 mm 5 mps 730 mmHg 92%
    08:00 +14°C° 0.6 mm 5 mps 730 mmHg 91%
    09:00 +14°C° 0.6 mm 4 mps 731 mmHg 91%
    10:00 +14°C° 0.6 mm 4 mps 731 mmHg 90%
    11:00 +14°C° 0.7 mm 3 mps 731 mmHg 91%
    12:00 +14°C° 0.7 mm 3 mps 731 mmHg 92%
    13:00 +13°C° 0.7 mm 3 mps 731 mmHg 93%
    14:00 +14°C° 0.3 mm 3 mps 731 mmHg 91%
    15:00 +14°C° 0.3 mm 4 mps 731 mmHg 90%
    16:00 +15°C° 0.3 mm 4 mps 731 mmHg 88%
    17:00 +15°C° 1.1 mm 5 mps 732 mmHg 89%
    18:00 +14°C° 1.1 mm 5 mps 732 mmHg 90%
    19:00 +14°C° 1.1 mm 6 mps 732 mmHg 91%
    20:00 +14°C° 0.5 mm 6 mps 732 mmHg 92%
    21:00 +14°C° 0.5 mm 6 mps 733 mmHg 93%
    22:00 +14°C° 0.5 mm 6 mps 733 mmHg 94%
    23:00 +13°C° 0.2 mm 6 mps 733 mmHg 94%

    Day after tomorrow, 23 May, Thursday

    Time Temperature Precipitation Wind Pressure Humidity
    00:00 +13°C° 0.2 mm 6 mps 734 mmHg 95%
    01:00 +13°C° 0.2 mm 6 mps 734 mmHg 95%
    02:00 +13°C° 0.4 mm 6 mps 734 mmHg 95%
    03:00 +13°C° 0.4 mm 6 mps 735 mmHg 95%
    04:00 +13°C° 0.4 mm 6 mps 735 mmHg 95%
    05:00 +13°C° 0.8 mm 6 mps 735 mmHg 95%
    06:00 +13°C° 0.8 mm 6 mps 736 mmHg 94%
    07:00 +13°C° 0.8 mm 6 mps 736 mmHg 94%
    08:00 +12°C° 0.7 mm 7 mps 737 mmHg 94%
    09:00 +11°C° 0.7 mm 7 mps 737 mmHg 93%
    10:00 +10°C° 0.7 mm 8 mps 737 mmHg 93%
    11:00 +10°C° 0.1 mm 7 mps 738 mmHg 93%
    12:00 +10°C° 0.1 mm 7 mps 738 mmHg 92%
    13:00 +10°C° 0.1 mm 7 mps 738 mmHg 92%
    14:00 +10°C° 0.1 mm 7 mps 739 mmHg 91%
    15:00 +10°C° 0.1 mm 7 mps 739 mmHg 89%
    16:00 +10°C° 0.1 mm 6 mps 739 mmHg 88%
    17:00 +9°C° 0 mm 5 mps 739 mmHg 87%
    18:00 +9°C° 0 mm 5 mps 739 mmHg 86%
    19:00 +10°C° 0 mm 4 mps 739 mmHg 85%
    20:00 +10°C° 0 mm 4 mps 739 mmHg 84%
    21:00 +10°C° 0 mm 4 mps 739 mmHg 84%
    22:00 +10°C° 0 mm 4 mps 739 mmHg 84%
    23:00 +10°C° 0 mm 4 mps 739 mmHg 84%

    24 May, Friday

    Time Temperature Precipitation Wind Pressure Humidity
    00:00 +10°C° 0 mm 4 mps 739 mmHg 84%
    01:00 +10°C° 0 mm 4 mps 739 mmHg 85%
    02:00 +9°C° 0 mm 3 mps 739 mmHg 87%
    03:00 +9°C° 0 mm 3 mps 739 mmHg 89%
    04:00 +8°C° 0 mm 3 mps 739 mmHg 91%
    05:00 +9°C° 0 mm 3 mps 739 mmHg 85%
    06:00 +10°C° 0 mm 3 mps 739 mmHg 78%
    07:00 +11°C° 0 mm 4 mps 739 mmHg 72%
    08:00 +12°C° 0 mm 4 mps 739 mmHg 66%
    09:00 +14°C° 0 mm 4 mps 738 mmHg 61%
    10:00 +15°C° 0 mm 4 mps 738 mmHg 55%
    11:00 +17°C° 0 mm 4 mps 738 mmHg 53%
    12:00 +17°C° 0 mm 4 mps 737 mmHg 52%
    13:00 +18°C° 0 mm 3 mps 737 mmHg 50%
    14:00 +18°C° 0 mm 3 mps 737 mmHg 51%
    15:00 +18°C° 0 mm 3 mps 736 mmHg 53%
    16:00 +18°C° 0 mm 3 mps 736 mmHg 54%
    17:00 +17°C° 0 mm 2 mps 736 mmHg 60%
    18:00 +15°C° 0 mm 2 mps 736 mmHg 65%
    19:00 +14°C° 0 mm 1 mps 736 mmHg 71%
    20:00 +13°C° 0 mm 1 mps 736 mmHg 73%
    21:00 +12°C° 0 mm 1 mps 736 mmHg 74%
    22:00 +11°C° 0 mm 1 mps 736 mmHg 76%
    23:00 +10°C° 0 mm 1 mps 736 mmHg 78%

    25 May, Saturday

    Time Temperature Precipitation Wind Pressure Humidity
    00:00 +10°C° 0 mm 1 mps 736 mmHg 81%
    01:00 +10°C° 0 mm 1 mps 736 mmHg 83%
    02:00 +9°C° 0 mm 1 mps 736 mmHg 83%
    03:00 +9°C° 0 mm 1 mps 735 mmHg 84%
    04:00 +8°C° 0 mm 0 mps 735 mmHg 84%
    05:00 +11°C° 0 mm 1 mps 735 mmHg 80%
    06:00 +12°C° 0 mm 1 mps 736 mmHg 76%
    07:00 +14°C° 0 mm 1 mps 736 mmHg 71%
    08:00 +16°C° 0 mm 1 mps 736 mmHg 67%
    09:00 +18°C° 0 mm 1 mps 736 mmHg 62%
    10:00 +19°C° 0 mm 1 mps 735 mmHg 58%
    11:00 +20°C° 0 mm 1 mps 735 mmHg 55%
    12:00 +21°C° 0 mm 1 mps 735 mmHg 53%
    13:00 +22°C° 0 mm 1 mps 735 mmHg 50%
    14:00 +22°C° 0 mm 1 mps 735 mmHg 50%
    15:00 +22°C° 0 mm 1 mps 734 mmHg 50%
    16:00 +23°C° 0 mm 1 mps 734 mmHg 50%
    17:00 +21°C° 0 mm 1 mps 734 mmHg 57%
    18:00 +20°C° 0 mm 1 mps 734 mmHg 64%
    19:00 +18°C° 0 mm 1 mps 734 mmHg 71%
    20:00 +16°C° 0 mm 1 mps 735 mmHg 76%
    21:00 +15°C° 0 mm 2 mps 735 mmHg 80%
    22:00 +14°C° 0 mm 2 mps 735 mmHg 85%
    23:00 +13°C° 0 mm 2 mps 735 mmHg 89%

    26 May, Sunday

    Time Temperature Precipitation Wind Pressure Humidity
    00:00 +12°C° 0 mm 3 mps 736 mmHg 92%
    01:00 +11°C° 0 mm 4 mps 736 mmHg 96%
    02:00 +12°C° 0.1 mm 4 mps 736 mmHg 95%
    03:00 +12°C° 0.1 mm 4 mps 736 mmHg 95%
    04:00 +12°C° 0.1 mm 4 mps 737 mmHg 94%
    05:00 +12°C° 0 mm 3 mps 737 mmHg 92%
    06:00 +12°C° 0 mm 3 mps 737 mmHg 90%
    07:00 +12°C° 0 mm 3 mps 737 mmHg 87%
    08:00 +13°C° 0 mm 3 mps 737 mmHg 82%
    09:00 +14°C° 0 mm 3 mps 738 mmHg 76%
    10:00 +16°C° 0 mm 3 mps 738 mmHg 71%
    11:00 +16°C° 0.1 mm 3 mps 738 mmHg 70%
    12:00 +16°C° 0.1 mm 3 mps 738 mmHg 69%
    13:00 +16°C° 0.1 mm 3 mps 738 mmHg 68%
    14:00 +16°C° 0 mm 3 mps 738 mmHg 69%
    15:00 +16°C° 0 mm 2 mps 738 mmHg 70%
    16:00 +16°C° 0 mm 2 mps 738 mmHg 71%
    17:00 +16°C° 0 mm 1 mps 737 mmHg 72%
    18:00 +15°C° 0 mm 1 mps 737 mmHg 73%
    19:00 +14°C° 0 mm 1 mps 737 mmHg 75%
    20:00 +13°C° 0 mm 1 mps 738 mmHg 77%
    21:00 +12°C° 0 mm 2 mps 738 mmHg 79%
    22:00 +10°C° 0 mm 2 mps 738 mmHg 82%
    23:00 +10°C° 0 mm 2 mps 738 mmHg 83%
    Show more